Temp
-5 -5 -5 -5 -4 -3 -3 -4 -6 -6 -7 -6 -7 -8 -8 -7 -6 -5 -4 -5 -4 -3 -4 -3 -3 -4 -4 -4 -4 -4 -4 -4 -4 -3 -3 -3 -3 -3 -3 -3 -3 -3 -3 -3 -3 -3 -3 -4 -4
-5 -5 -5 -4 -3 -2 -3 -4 -5 -6 -7 -6 -6 -7 -8 -7 -7 -6 -5 -5 -4 -4 -4 -4 -3 -4 -4 -4 -4 -4 -4 -4 -4 -4 -4 -4 -4 -4 -4 -4 -4 -4 -4 -4 -4 -4 -4 -4 -4
-5 -5 -5 -4 -3 -2 -3 -5 -5 -6 -7 -7 -6 -7 -7 -7 -6 -5 -5 -4 -4 -4 -4 -4 -3 -4 -5 -4 -5 -5 -4 -4 -4 -4 -4 -4 -4 -4 -4 -4 -4 -4 -4 -5 -5 -5 -5 -5 -5
-5 -5 -5 -4 -3 -3 -3 -5 -5 -6 -7 -6 -6 -6 -6 -5 -5 -5 -5 -5 -5 -4 -4 -3 -4 -4 -5 -5 -5 -5 -5 -5 -5 -5 -5 -5 -5 -5 -5 -5 -5 -5 -5 -5 -5 -5 -5 -5 -5
-5 -5 -4 -4 -4 -3 -3 -4 -6 -6 -7 -7 -6 -5 -4 -4 -4 -4 -4 -4 -5 -4 -3 -4 -4 -5 -5 -5 -5 -5 -5 -6 -6 -6 -6 -5 -5 -5 -6 -6 -6 -6 -6 -6 -6 -6 -6 -6 -5
-5 -5 -4 -4 -4 -4 -4 -4 -5 -6 -7 -7 -6 -6 -4 -4 -3 -3 -4 -3 -4 -4 -4 -5 -5 -5 -5 -5 -6 -6 -6 -6 -6 -6 -6 -6 -6 -6 -6 -5 -5 -6 -6 -6 -6 -6 -6 -6 -6
-5 -5 -4 -4 -4 -4 -4 -4 -4 -5 -6 -7 -7 -6 -5 -4 -3 -3 -4 -4 -5 -5 -5 -5 -5 -5 -5 -5 -6 -6 -6 -7 -7 -7 -7 -6 -6 -6 -6 -6 -6 -6 -6 -6 -6 -7 -7 -7 -7
-5 -5 -4 -4 -4 -4 -5 -4 -5 -5 -6 -7 -7 -6 -6 -5 -4 -4 -4 -5 -5 -5 -6 -6 -5 -5 -6 -6 -6 -6 -6 -7 -7 -7 -7 -7 -6 -6 -6 -6 -6 -7 -7 -6 -6 -7 -7 -7 -7
-6 -5 -5 -4 -5 -5 -5 -5 -5 -5 -5 -6 -8 -6 -6 -6 -5 -3 -3 -4 -5 -6 -6 -6 -6 -6 -6 -6 -6 -6 -6 -7 -7 -7 -7 -7 -7 -7 -6 -6 -6 -6 -7 -7 -8 -8 -8 -8 -8
-6 -6 -5 -6 -5 -5 -5 -5 -6 -5 -5 -6 -7 -8 -6 -6 -5 -4 -4 -5 -6 -6 -5 -6 -6 -7 -7 -6 -6 -7 -7 -7 -7 -8 -8 -8 -8 -7 -6 -6 -6 -7 -7 -7 -8 -8 -8 -9 -9
-7 -6 -6 -6 -6 -6 -6 -6 -8 -6 -5 -6 -6 -8 -8 -7 -6 -5 -5 -5 -5 -6 -5 -5 -6 -6 -6 -7 -7 -7 -7 -7 -8 -8 -8 -8 -8 -7 -7 -7 -7 -7 -7 -8 -8 -8 -8 -9 -9
-8 -7 -7 -7 -7 -7 -7 -7 -6 -5 -5 -5 -7 -7 -7 -7 -5 -6 -5 -4 -6 -5 -5 -6 -6 -6 -7 -8 -8 -8 -8 -8 -8 -8 -9 -9 -8 -8 -8 -8 -8 -8 -8 -8 -8 -8 -8 -8 -9
-8 -7 -7 -8 -8 -7 -7 -7 -8 -7 -7 -6 -6 -6 -6 -7 -6 -6 -5 -5 -5 -6 -6 -7 -7 -7 -8 -7 -9 -9 -8 -9 -9 -9 -9 -9 -9 -8 -8 -8 -8 -8 -8 -8 -8 -8 -8 -8 -8
-9 -8 -8 -8 -7 -7 -7 -7 -8 -7 -8 -7 -7 -6 -6 -5 -6 -7 -6 -5 -5 -6 -7 -7 -8 -8 -9 -8 -9 -8 -8 -9 -10 -9 -8 -8 -8 -8 -7 -8 -8 -8 -8 -8 -8 -8 -8 -9 -9
-10 -9 -9 -8 -7 -7 -8 -7 -6 -7 -9 -9 -7 -6 -7 -7 -8 -8 -7 -6 -6 -7 -6 -6 -7 -8 -9 -8 -8 -9 -9 -9 -9 -8 -8 -7 -8 -8 -8 -8 -8 -8 -8 -8 -8 -8 -9 -9 -9
-11 -10 -9 -8 -8 -8 -9 -6 -6 -7 -8 -8 -7 -6 -6 -6 -8 -8 -7 -6 -7 -7 -6 -6 -7 -8 -8 -8 -8 -8 -8 -9 -8 -8 -8 -7 -8 -8 -8 -9 -8 -8 -8 -9 -9 -9 -8 -8 -8
-11 -9 -9 -9 -9 -9 -9 -6 -8 -8 -9 -9 -7 -6 -6 -7 -8 -7 -7 -7 -7 -6 -6 -6 -7 -8 -7 -8 -9 -9 -9 -10 -8 -7 -7 -8 -8 -8 -8 -8 -8 -8 -8 -8 -9 -9 -9 -9 -9
-11 -11 -11 -9 -10 -10 -10 -8 -8 -9 -9 -8 -8 -7 -7 -7 -8 -8 -8 -7 -7 -6 -6 -6 -6 -7 -8 -8 -8 -8 -9 -9 -7 -8 -9 -8 -8 -7 -9 -9 -8 -8 -8 -8 -8 -9 -9 -9 -10
-13 -12 -11 -11 -11 -11 -11 -9 -10 -9 -9 -9 -8 -8 -7 -7 -9 -8 -8 -8 -7 -6 -6 -6 -6 -7 -8 -8 -8 -10 -9 -10 -8 -8 -8 -7 -9 -9 -9 -8 -9 -8 -8 -8 -9 -9 -9 -10 -10
-13 -13 -12 -12 -12 -12 -11 -10 -10 -10 -10 -9 -9 -8 -8 -8 -8 -8 -8 -8 -7 -6 -7 -6 -6 -7 -8 -8 -9 -8 -9 -9 -9 -7 -8 -8 -8 -8 -9 -9 -9 -9 -9 -9 -9 -9 -9 -10 -12
-14 -14 -13 -12 -13 -13 -12 -11 -9 -9 -10 -10 -9 -8 -8 -8 -8 -8 -7 -8 -8 -7 -7 -7 -7 -7 -8 -8 -9 -8 -9 -9 -8 -8 -7 -8 -8 -9 -9 -9 -9 -9 -9 -9 -9 -9 -10 -9 -10
-15 -14 -13 -13 -14 -12 -14 -12 -11 -10 -10 -9 -9 -8 -7 -8 -8 -8 -8 -8 -8 -7 -7 -7 -7 -8 -8 -8 -9 -9 -9 -10 -8 -8 -8 -8 -8 -9 -9 -9 -9 -9 -9 -9 -9 -9 -10 -10 -10
-15 -17 -15 -14 -14 -13 -14 -15 -10 -11 -11 -10 -9 -8 -7 -8 -8 -8 -8 -8 -8 -8 -7 -7 -7 -7 -8 -8 -8 -9 -9 -10 -8 -8 -8 -8 -8 -9 -9 -9 -9 -9 -9 -9 -10 -10 -10 -10 -10
-18 -18 -17 -15 -14 -13 -12 -15 -10 -11 -11 -10 -10 -9 -8 -8 -8 -8 -8 -8 -8 -8 -7 -7 -8 -8 -8 -8 -9 -9 -10 -9 -9 -9 -8 -9 -9 -9 -9 -10 -9 -9 -10 -10 -10 -10 -9 -9 -11
-21 -19 -19 -19 -17 -14 -12 -15 -12 -11 -11 -11 -10 -9 -9 -9 -9 -8 -8 -8 -8 -8 -8 -7 -8 -8 -8 -8 -9 -9 -10 -9 -9 -9 -9 -10 -9 -10 -10 -9 -9 -10 -10 -10 -10 -10 -10 -10 -10
-20 -20 -20 -20 -18 -17 -13 -15 -12 -11 -11 -11 -11 -10 -10 -10 -9 -9 -9 -8 -8 -8 -8 -8 -8 -9 -9 -9 -9 -9 -9 -9 -9 -9 -9 -10 -10 -10 -9 -10 -10 -10 -10 -9 -10 -11 -11 -11 -11
-20 -19 -19 -20 -19 -19 -16 -16 -14 -12 -12 -12 -12 -11 -10 -11 -10 -9 -9 -9 -9 -8 -8 -8 -9 -9 -9 -9 -10 -9 -9 -9 -9 -10 -10 -10 -10 -10 -10 -10 -11 -10 -10 -10 -11 -10 -10 -10 -11
-19 -20 -20 -19 -19 -20 -18 -17 -16 -12 -12 -13 -13 -12 -11 -11 -11 -10 -9 -9 -9 -9 -8 -9 -9 -9 -9 -9 -10 -10 -9 -9 -9 -10 -10 -10 -10 -10 -10 -11 -11 -11 -11 -10 -10 -11 -10 -11 -11
-19 -19 -20 -20 -19 -19 -19 -18 -18 -12 -13 -14 -14 -12 -12 -11 -11 -10 -9 -9 -8 -9 -9 -9 -9 -10 -10 -10 -9 -9 -10 -9 -10 -10 -10 -11 -10 -11 -11 -11 -11 -11 -11 -11 -11 -11 -11 -12 -12
-19 -19 -18 -19 -19 -19 -19 -17 -18 -16 -14 -14 -14 -13 -13 -12 -12 -11 -10 -9 -9 -9 -9 -9 -10 -10 -10 -9 -9 -10 -10 -10 -11 -11 -11 -11 -11 -11 -12 -12 -12 -12 -12 -12 -12 -12 -12 -12 -12
Height
5887 5888 5889 5890 5894 5892 5900 5906 5906 5908 5908 5907 5905 5909 5908 5907 5913 5917 5919 5920 5920 5921 5921 5921 5919 5919 5919 5920 5921 5921 5921 5921 5921 5920 5920 5920 5919 5919 5918 5917 5917 5916 5916 5915 5914 5913 5911 5910 5909
5881 5882 5884 5884 5886 5887 5897 5901 5903 5906 5902 5902 5901 5900 5906 5910 5914 5915 5917 5919 5921 5921 5921 5921 5920 5919 5919 5919 5920 5920 5920 5920 5919 5919 5919 5918 5918 5918 5917 5916 5915 5914 5914 5913 5912 5911 5910 5909 5907
5873 5876 5878 5877 5879 5884 5894 5897 5902 5901 5898 5899 5898 5894 5897 5902 5907 5911 5912 5913 5916 5917 5918 5919 5918 5918 5918 5918 5918 5919 5919 5919 5918 5918 5917 5917 5916 5915 5915 5914 5913 5912 5911 5910 5909 5909 5908 5907 5905
5866 5869 5870 5870 5876 5884 5890 5893 5895 5894 5892 5890 5891 5888 5892 5896 5901 5906 5909 5912 5912 5913 5916 5915 5914 5915 5917 5916 5915 5917 5918 5918 5918 5918 5916 5915 5913 5913 5912 5911 5910 5908 5908 5907 5906 5905 5905 5904 5903
5857 5859 5860 5864 5872 5879 5882 5886 5887 5890 5888 5885 5882 5881 5886 5891 5895 5902 5906 5908 5909 5912 5911 5911 5911 5911 5914 5913 5913 5914 5916 5916 5916 5915 5914 5913 5913 5912 5911 5909 5908 5907 5907 5906 5904 5903 5902 5901 5900
5848 5850 5852 5859 5868 5868 5872 5877 5880 5883 5886 5883 5875 5876 5881 5884 5888 5896 5900 5902 5903 5906 5906 5907 5908 5909 5911 5910 5910 5912 5914 5915 5915 5915 5914 5913 5912 5911 5910 5909 5907 5906 5905 5905 5903 5902 5900 5898 5896
5840 5840 5843 5851 5858 5859 5867 5868 5870 5876 5876 5877 5875 5868 5873 5878 5882 5888 5894 5897 5897 5899 5901 5903 5904 5906 5907 5908 5909 5911 5913 5912 5912 5912 5912 5910 5909 5908 5907 5905 5904 5904 5904 5903 5901 5900 5898 5897 5894
5829 5828 5832 5839 5850 5854 5860 5860 5862 5863 5866 5870 5864 5858 5865 5870 5874 5880 5885 5892 5895 5896 5896 5898 5900 5901 5902 5905 5906 5908 5908 5909 5909 5909 5908 5907 5906 5904 5903 5902 5901 5901 5899 5897 5896 5895 5893 5892 5891
5816 5815 5824 5834 5843 5852 5848 5848 5850 5851 5856 5855 5856 5854 5858 5861 5864 5870 5877 5887 5892 5890 5891 5892 5895 5897 5899 5901 5903 5903 5904 5905 5905 5904 5903 5902 5902 5902 5900 5899 5898 5896 5894 5893 5892 5890 5889 5888 5886
5802 5807 5819 5828 5830 5834 5837 5836 5838 5842 5846 5847 5850 5849 5851 5851 5857 5863 5873 5882 5884 5883 5884 5887 5888 5889 5894 5896 5897 5897 5898 5900 5900 5899 5897 5896 5896 5895 5894 5893 5891 5890 5888 5886 5886 5884 5883 5882 5880
5793 5799 5813 5815 5817 5819 5826 5823 5829 5831 5837 5840 5840 5844 5843 5845 5847 5854 5863 5878 5877 5876 5878 5878 5881 5885 5886 5888 5890 5892 5893 5893 5893 5891 5890 5890 5891 5889 5887 5886 5885 5883 5882 5881 5880 5878 5876 5875 5874
5781 5789 5795 5803 5802 5807 5815 5817 5815 5822 5832 5834 5836 5839 5838 5838 5845 5842 5849 5864 5875 5874 5871 5870 5872 5874 5879 5881 5884 5884 5886 5887 5886 5885 5884 5884 5884 5883 5882 5880 5879 5878 5876 5874 5874 5873 5873 5872 5870
5767 5776 5779 5788 5790 5797 5800 5805 5810 5815 5822 5823 5827 5828 5833 5834 5837 5838 5842 5853 5861 5867 5865 5866 5867 5869 5871 5872 5874 5876 5878 5878 5879 5881 5882 5881 5879 5880 5876 5875 5875 5874 5872 5870 5869 5868 5867 5866 5864
5755 5759 5766 5772 5783 5786 5789 5796 5796 5811 5812 5814 5820 5824 5827 5833 5835 5833 5836 5843 5847 5855 5859 5858 5863 5862 5866 5872 5870 5872 5869 5870 5872 5875 5875 5874 5872 5872 5874 5872 5871 5870 5869 5867 5865 5863 5861 5859 5857
5738 5742 5750 5761 5771 5776 5775 5782 5792 5806 5801 5802 5808 5817 5825 5831 5830 5830 5834 5835 5837 5839 5847 5851 5855 5858 5861 5865 5860 5859 5856 5863 5869 5872 5872 5869 5867 5868 5867 5867 5866 5865 5866 5864 5860 5859 5857 5854 5851
5720 5728 5739 5757 5758 5761 5762 5776 5788 5790 5785 5791 5796 5807 5816 5821 5821 5825 5832 5833 5835 5837 5839 5844 5847 5853 5858 5854 5848 5850 5854 5860 5865 5866 5866 5865 5864 5861 5861 5858 5859 5860 5859 5856 5853 5851 5850 5847 5844
5709 5721 5728 5741 5746 5746 5750 5765 5772 5775 5776 5782 5790 5799 5807 5813 5812 5819 5825 5831 5831 5835 5837 5839 5842 5846 5847 5844 5846 5846 5850 5855 5860 5861 5859 5856 5858 5857 5854 5854 5855 5854 5851 5849 5845 5843 5841 5835 5833
5701 5702 5706 5720 5732 5731 5734 5747 5762 5766 5768 5776 5783 5793 5800 5805 5804 5811 5815 5822 5825 5828 5831 5833 5835 5837 5838 5840 5839 5846 5846 5850 5857 5857 5852 5850 5852 5852 5849 5850 5850 5848 5846 5841 5838 5835 5831 5828 5826
5674 5681 5689 5706 5717 5714 5719 5732 5743 5752 5756 5764 5772 5780 5789 5794 5797 5803 5803 5812 5817 5820 5822 5824 5828 5830 5834 5839 5836 5836 5843 5848 5852 5852 5850 5846 5846 5846 5845 5845 5842 5840 5838 5836 5832 5828 5825 5822 5818
5653 5663 5677 5692 5700 5698 5704 5713 5726 5733 5738 5749 5760 5769 5779 5782 5787 5795 5796 5803 5807 5811 5813 5816 5820 5823 5827 5831 5836 5835 5840 5844 5849 5847 5843 5843 5841 5841 5841 5840 5838 5836 5834 5829 5826 5822 5818 5814 5809
5635 5644 5665 5672 5676 5684 5688 5693 5711 5716 5724 5736 5744 5757 5767 5772 5779 5785 5788 5794 5799 5803 5806 5809 5812 5816 5820 5827 5831 5832 5837 5839 5842 5841 5838 5835 5835 5835 5833 5833 5833 5832 5828 5824 5819 5816 5812 5809 5803
5619 5633 5647 5650 5656 5664 5673 5676 5694 5702 5711 5722 5736 5746 5760 5764 5769 5775 5779 5786 5794 5799 5801 5803 5808 5813 5816 5818 5820 5825 5830 5832 5836 5835 5831 5830 5830 5828 5828 5829 5827 5825 5821 5816 5813 5808 5806 5801 5799
5606 5610 5622 5632 5638 5650 5657 5651 5679 5687 5697 5711 5727 5741 5752 5754 5760 5765 5772 5781 5785 5791 5796 5798 5802 5805 5809 5812 5814 5817 5824 5826 5829 5825 5825 5826 5825 5824 5823 5823 5821 5818 5814 5809 5805 5802 5798 5794 5789
5593 5595 5606 5614 5622 5619 5647 5640 5663 5676 5690 5704 5717 5733 5743 5745 5749 5755 5764 5771 5777 5782 5786 5789 5795 5798 5802 5805 5807 5811 5817 5820 5820 5819 5820 5821 5819 5819 5817 5817 5814 5811 5805 5801 5798 5793 5789 5782 5778
5582 5586 5592 5596 5597 5604 5641 5622 5648 5672 5683 5696 5707 5720 5730 5733 5740 5747 5755 5762 5768 5774 5778 5783 5787 5792 5796 5797 5802 5804 5810 5811 5811 5811 5812 5812 5810 5809 5810 5808 5806 5802 5799 5795 5791 5786 5781 5778 5773
5576 5578 5583 5589 5592 5599 5622 5598 5632 5668 5678 5684 5690 5703 5714 5724 5729 5736 5746 5754 5760 5766 5770 5775 5780 5784 5789 5792 5796 5801 5802 5802 5805 5805 5805 5804 5802 5802 5802 5801 5799 5795 5792 5788 5782 5778 5775 5773 5769
5577 5573 5582 5580 5583 5586 5591 5594 5617 5647 5657 5667 5677 5689 5702 5711 5715 5725 5734 5743 5751 5756 5762 5768 5773 5778 5782 5784 5786 5790 5791 5795 5796 5795 5795 5796 5796 5797 5796 5793 5789 5788 5783 5779 5775 5772 5769 5766 5763
5572 5575 5574 5574 5575 5575 5579 5583 5594 5631 5647 5655 5665 5676 5689 5697 5704 5713 5723 5734 5742 5749 5752 5759 5765 5769 5773 5774 5779 5784 5788 5786 5787 5788 5789 5790 5791 5789 5785 5783 5781 5779 5775 5773 5771 5769 5765 5761 5757
5568 5569 5568 5569 5567 5567 5572 5573 5587 5615 5624 5638 5652 5664 5673 5681 5694 5705 5717 5726 5735 5739 5745 5753 5759 5763 5766 5770 5775 5777 5778 5778 5780 5781 5783 5783 5782 5780 5776 5775 5774 5771 5769 5768 5765 5762 5759 5756 5752
5561 5562 5561 5559 5561 5562 5565 5573 5582 5589 5604 5621 5634 5648 5658 5668 5683 5693 5705 5716 5722 5731 5738 5745 5753 5756 5759 5762 5765 5768 5770 5771 5773 5775 5775 5774 5773 5772 5771 5768 5766 5765 5764 5761 5758 5754 5751 5748 5744
Wind_Speed
26 27 28 29 29 29 21 19 26 22 15 17 12 8 21 27 25 26 21 13 8 11 11 14 7 6 2 2 4 4 4 6 7 7 7 8 9 10 9 9 8 8 9 10 11 11 11 10 10
32 31 31 32 33 28 20 20 27 25 23 25 24 21 21 28 31 33 25 26 19 12 15 16 11 8 10 7 7 8 5 5 6 7 8 8 9 11 12 11 11 11 11 11 12 13 13 13 13
35 34 35 38 34 28 18 22 25 28 28 29 29 29 30 33 36 32 34 26 26 27 26 20 14 12 14 11 7 7 6 6 7 8 9 9 10 10 10 12 13 14 15 14 14 15 15 15 15
41 39 40 39 35 27 22 25 28 36 31 37 42 37 37 36 35 31 28 24 16 24 24 17 12 11 14 11 7 7 7 5 4 6 6 7 8 9 10 11 12 13 14 16 16 16 16 17 16
47 46 46 42 33 28 29 29 32 37 35 40 44 45 40 35 33 28 25 28 23 21 17 16 15 13 15 12 11 11 10 10 9 10 11 12 12 12 12 12 13 15 16 17 17 17 17 18 19
53 51 51 45 37 35 35 32 36 36 41 42 49 49 46 41 34 24 26 27 26 23 21 18 16 17 18 16 15 15 14 14 15 16 16 16 16 17 17 18 18 19 19 20 21 22 22 22 23
52 54 55 48 43 44 36 34 36 37 40 45 48 52 50 46 39 31 26 23 26 28 26 22 20 20 21 20 18 18 18 17 18 18 18 19 20 21 20 20 21 22 23 23 24 25 26 26 27
53 55 54 52 44 41 35 39 35 41 45 45 50 55 51 49 46 39 33 28 23 23 27 27 27 26 25 24 22 21 21 21 21 22 22 23 24 24 24 24 24 24 24 26 27 28 28 29 29
59 61 57 51 43 36 38 42 42 41 45 50 52 54 51 52 51 46 39 27 21 28 29 30 30 29 29 27 25 25 25 24 23 24 24 25 26 26 26 27 27 27 27 27 28 29 30 31 31
60 61 53 44 46 45 42 44 39 43 44 48 53 55 54 54 51 48 38 23 17 24 28 29 31 30 29 29 29 29 29 26 26 26 26 25 27 27 27 28 28 28 29 29 30 31 31 31 32
56 58 45 48 49 47 44 49 39 45 49 49 54 55 56 55 55 50 43 26 25 28 30 34 32 32 33 32 33 33 31 28 28 26 27 28 29 28 28 27 27 27 29 30 31 33 34 36 36
53 49 47 45 47 47 44 44 49 53 48 46 58 56 58 58 48 53 49 33 21 26 32 34 36 36 34 36 36 35 31 31 31 30 27 29 30 29 27 27 26 27 28 29 31 33 35 37 40
58 54 52 47 48 48 46 45 41 45 43 51 52 53 53 50 51 51 46 37 31 26 34 34 40 35 37 43 41 40 35 37 33 28 25 29 32 28 28 26 25 26 28 27 27 28 29 31 32
60 58 55 53 49 49 49 47 47 41 41 46 50 53 53 50 43 45 39 37 33 27 29 28 33 19 36 33 32 42 43 45 34 26 31 31 27 26 28 24 26 27 29 29 30 30 29 29 30
62 63 61 57 52 50 52 53 52 37 42 46 49 48 42 37 38 39 31 31 29 32 27 25 24 24 29 27 24 28 56 37 26 33 27 27 25 27 26 23 25 27 27 27 26 27 28 31 31
65 65 64 56 54 54 55 52 46 47 51 51 51 48 43 37 36 35 30 30 31 30 31 29 24 22 25 21 12 6 11 22 33 33 26 28 26 27 24 24 25 27 29 29 30 33 34 35 35
65 63 62 56 52 55 57 55 51 52 53 52 51 48 44 39 39 35 29 32 34 31 31 29 28 24 21 20 18 14 22 34 33 29 25 22 25 26 23 27 30 30 32 34 35 37 36 36 38
62 65 64 59 55 55 56 57 50 53 53 51 48 44 40 37 38 34 32 30 33 31 33 33 30 25 23 21 25 23 25 26 29 24 26 25 23 24 24 28 30 32 34 34 36 37 35 37 39
65 65 66 60 55 56 56 56 51 49 51 54 51 48 45 42 38 33 36 29 32 32 31 32 30 27 24 21 17 17 26 28 25 24 24 23 22 25 24 26 29 31 33 36 36 38 38 40 42
62 61 62 57 55 60 60 61 56 55 56 53 54 53 47 45 43 38 37 34 35 34 31 32 30 29 28 21 26 24 35 25 29 27 28 26 26 24 25 25 27 29 31 33 38 39 38 43 41
61 61 61 63 57 60 62 67 65 65 59 55 56 53 51 49 46 41 42 37 37 35 33 31 30 30 26 25 15 12 27 26 15 30 29 25 24 23 24 26 27 30 29 33 35 33 31 41 31
66 65 64 64 62 66 57 64 61 63 61 59 54 53 50 49 48 46 46 40 37 35 35 34 32 31 28 28 21 16 21 14 24 25 26 22 22 24 26 27 29 30 31 33 36 30 38 38 33
72 69 68 67 66 68 64 66 68 62 60 57 54 53 50 48 47 46 45 39 39 37 37 37 32 34 27 26 26 19 23 22 25 27 23 23 23 25 26 27 29 31 31 33 32 37 40 43 40
65 64 64 67 71 78 71 67 74 65 61 57 54 49 48 51 49 47 44 40 39 38 39 39 33 33 25 25 24 17 24 27 27 25 23 22 25 25 25 28 29 31 30 31 34 37 41 39 30
30 48 55 60 70 76 70 71 71 64 59 53 54 51 50 49 48 47 46 43 40 39 39 38 36 30 26 25 27 22 25 25 25 23 24 25 25 25 25 29 30 30 31 33 36 35 31 30 28
28 31 37 35 55 67 74 80 71 61 54 54 54 53 50 47 50 47 44 45 44 42 41 39 36 31 28 31 30 28 27 27 26 24 26 26 26 26 27 30 29 30 31 32 31 29 31 35 34
18 26 32 38 37 30 61 69 72 70 62 54 54 59 54 46 51 51 48 47 45 45 43 41 37 32 31 31 29 26 28 27 25 25 25 27 28 28 28 29 28 28 30 31 30 30 33 34 29
16 18 29 33 38 47 45 47 63 71 68 58 57 55 56 48 52 53 49 47 44 46 47 43 37 32 32 33 30 29 28 28 25 26 28 30 30 29 28 28 28 28 28 30 28 28 30 26 29
13 20 26 30 36 41 41 44 44 75 68 66 59 56 55 54 50 52 48 47 45 47 47 41 34 33 35 36 35 30 28 29 27 29 30 32 30 28 28 29 28 28 29 31 30 31 31 32 32
16 20 29 27 30 36 37 31 31 50 71 75 69 61 58 55 50 52 51 46 45 47 46 42 34 38 40 41 34 29 29 30 30 32 32 31 29 28 28 28 29 31 32 34 36 38 40 41 40
Wind_Direction
242 246 248 241 238 232 211 192 183 173 178 177 158 264 276 282 264 281 260 286 285 275 269 276 262 270 257 309 316 309 304 293 289 289 291 299 305 308 308 310 313 311 313 311 307 301 296 297 301
245 245 247 246 238 234 208 196 194 184 197 197 195 197 235 250 259 257 263 256 266 267 273 279 278 270 278 286 288 289 281 277 275 277 284 292 302 305 305 304 303 302 302 301 299 298 297 295 293
247 248 249 247 236 230 214 211 189 193 211 213 210 217 221 231 235 240 243 255 261 254 262 265 270 271 272 272 273 272 280 274 265 264 270 281 284 290 296 299 295 293 290 290 291 293 293 293 293
248 248 249 248 247 243 231 216 204 197 208 226 229 229 230 233 237 242 243 242 252 234 241 253 257 259 259 260 259 262 270 272 283 280 272 260 263 271 276 282 288 288 287 287 287 288 290 292 293
251 253 250 249 251 250 243 223 220 205 212 230 238 243 244 245 243 231 229 223 239 237 240 245 243 241 246 249 251 253 256 254 255 251 256 265 273 276 272 270 277 283 287 286 287 286 287 288 287
253 254 253 251 252 251 243 234 225 214 215 231 243 248 252 253 251 239 237 242 243 245 247 244 245 248 249 251 254 260 262 264 266 267 267 269 270 273 278 279 277 275 280 285 286 287 285 284 285
252 253 253 251 246 246 248 241 232 223 217 228 242 253 255 257 261 261 251 240 251 254 262 263 255 253 256 255 255 261 265 265 269 274 278 281 282 283 282 279 278 278 278 279 283 287 288 287 286
246 249 251 249 247 248 252 250 240 225 217 216 232 245 251 259 262 257 250 241 253 259 263 264 264 262 260 259 261 263 263 266 271 281 282 281 278 277 279 280 280 278 275 274 276 279 280 283 287
243 249 252 253 250 248 245 245 242 232 223 218 225 239 247 249 252 252 253 251 269 273 263 260 263 264 266 268 267 264 263 265 271 277 279 279 279 282 284 284 282 277 273 272 275 279 281 283 284
244 246 252 248 244 239 236 238 238 237 235 225 223 233 243 248 252 257 259 264 256 252 259 260 258 259 260 261 260 259 261 263 267 273 278 276 275 278 281 281 278 277 276 275 275 276 278 280 280
247 249 248 243 241 241 233 238 225 233 235 222 223 222 237 248 256 259 259 253 244 245 249 247 244 250 253 254 253 254 255 257 261 267 270 274 278 277 277 280 280 281 278 277 277 274 274 276 280
246 245 241 237 237 237 235 234 233 233 233 233 221 227 234 243 252 260 261 258 239 244 255 253 249 238 241 250 254 254 253 256 258 259 263 270 275 279 286 286 284 284 283 284 282 284 288 286 286
243 242 239 233 232 233 231 227 233 238 233 235 232 237 238 241 250 256 268 272 266 251 246 251 256 244 250 260 248 254 253 250 252 257 265 271 275 285 286 290 297 299 297 297 297 296 296 296 296
241 239 238 235 231 232 233 230 227 224 230 235 238 238 245 254 260 260 269 268 265 249 241 254 256 252 249 252 259 257 258 251 242 251 253 259 274 282 284 293 298 299 299 301 302 303 305 302 303
239 239 237 234 232 232 233 229 233 223 223 230 233 233 236 240 241 249 255 263 269 272 265 264 257 257 263 245 264 248 250 240 246 247 261 266 269 271 277 289 295 299 301 304 303 299 296 297 296
238 238 238 236 235 233 233 232 231 223 225 225 231 231 231 231 238 245 246 251 255 260 267 268 261 254 243 259 245 251 220 232 247 247 252 258 266 278 291 298 300 302 305 309 306 305 300 297 299
239 242 240 235 235 237 236 233 227 226 223 226 230 233 234 233 239 240 239 238 248 248 254 257 258 254 259 287 235 225 232 235 243 242 247 262 270 284 296 301 301 301 309 310 308 305 304 304 303
246 242 238 236 231 238 237 232 230 231 230 230 232 232 231 233 238 239 238 235 244 247 247 249 252 254 262 271 279 248 239 244 247 241 250 258 274 285 298 293 300 307 310 312 308 307 304 301 301
241 240 240 238 233 236 237 231 229 228 230 230 229 230 229 231 235 235 244 238 241 246 249 252 251 252 248 250 256 242 240 230 242 239 258 268 273 279 282 293 304 309 309 308 310 309 305 302 302
240 239 238 233 230 232 230 229 226 224 222 223 226 227 227 230 234 232 238 236 242 245 246 250 255 254 256 246 262 280 229 228 230 246 251 259 263 274 287 297 302 307 306 309 308 312 312 308 295
229 225 231 233 226 224 228 230 227 225 222 218 221 221 221 225 230 232 236 234 236 241 247 252 253 256 257 257 244 279 241 247 225 244 255 267 282 288 296 303 306 304 303 309 306 312 314 320 306
225 233 232 230 227 228 228 231 228 229 230 226 219 221 221 223 227 227 231 233 236 237 242 248 248 246 250 255 256 245 220 227 251 257 264 276 280 290 294 298 302 303 304 311 312 298 307 312 312
226 229 232 230 230 230 223 230 224 225 227 231 228 224 221 224 225 224 230 227 231 232 236 242 245 247 250 244 256 218 231 263 249 254 265 272 278 282 292 297 300 304 305 308 312 310 307 307 303
228 229 229 229 231 232 229 228 230 225 229 229 228 223 226 227 224 220 222 223 226 229 232 238 239 243 244 243 235 239 247 245 243 254 267 268 270 281 293 298 304 307 307 308 309 309 310 311 305
232 233 229 224 224 232 232 234 231 229 231 232 235 230 225 228 226 225 221 223 225 228 231 235 237 237 235 230 238 238 246 252 256 267 272 272 280 289 294 303 308 311 308 311 307 309 312 317 315
228 230 228 237 236 234 230 232 234 229 232 233 230 230 224 227 229 225 221 223 225 227 228 230 233 233 232 231 236 236 246 252 259 267 267 273 280 287 297 300 308 311 311 310 313 311 311 308 303
228 233 215 238 232 236 233 233 233 225 225 223 228 232 230 211 222 224 219 217 220 226 226 228 231 229 234 235 237 243 249 256 259 264 270 273 276 284 292 305 311 309 312 313 313 314 310 308 306
217 238 231 235 237 241 233 233 230 222 223 216 221 227 229 212 215 220 220 218 219 224 228 226 226 227 230 236 238 241 250 257 262 266 267 271 275 287 299 305 308 310 312 308 308 311 313 308 310
262 225 237 239 236 239 238 229 222 218 210 206 208 220 222 225 211 217 221 218 216 222 227 228 224 222 230 232 237 242 248 256 263 264 265 269 279 290 299 303 305 305 305 300 302 303 302 299 300
280 257 238 239 237 239 242 221 223 208 200 199 199 208 217 215 203 207 214 217 218 220 223 226 223 222 228 238 241 243 248 256 258 260 265 273 283 290 293 296 301 300 298 296 295 296 297 296 297